Weather History for Anchialos, Greece

Change the Weather History Date:

Saturday, May 25, 2013

  Actual Average Record
Temperature  
Mean Temperature 72 °F -  
Max Temperature 84 °F - - ()
Min Temperature 60 °F - - ()
Cooling Degree Days 7    
Growing Degree Days 22 (Base 50)    
Moisture  
Dew Point 42 °F    
Average Humidity 32    
Maximum Humidity 52    
Minimum Humidity 20    
Precipitation  
Precipitation 0.00 in - - ()
Sea Level Pressure  
Sea Level Pressure 29.89 in    
Wind  
Wind Speed 12 mph ()    
Max Wind Speed 23 mph    
Max Gust Speed 34 mph    
Visibility 6.2 miles    
Events      
T = Trace of Precipitation, MM = Missing Value Source: Averaged Metar Reports

Daily Weather History Graph

Daily Weather History Graph

Search for Another Location

Airport:

Trip Planner

Search our weather history database for the weather conditions in past years. The results will help you decide how hot, cold, wet, or windy it might be!

Date:

Astronomy

May. 25, 2013 Rise Set
Actual Time 6:07 AM EEST 8:43 PM EEST
Civil Twilight 5:36 AM EEST 9:15 PM EEST
Nautical Twilight 4:58 AM EEST 9:53 PM EEST
Astronomical Twilight 4:14 AM EEST 10:37 PM EEST
Moon 9:12 PM EEST (5/25) 6:16 AM EEST (5/25)
Length of Visible Light 15h 38m
Length of Day
14h 35m
Full, 100% of the Moon is Illuminated
May 25
Full
May 31
Last Quarter
Jun 8
New
Jun 16
First Quarter
Jun 23
Full

Hourly Weather History & Observations

Time (EEST) Temp. Dew Point Humidity Pressure Visibility Wind Dir Wind Speed Gust Speed Precip Events Conditions
12:50 AM 68.0 °F 42.8 °F 40% 29.89 in 6.2 mi West 16.1 mph - N/A   Partly Cloudy
1:50 AM 66.2 °F 42.8 °F 43% 29.89 in 6.2 mi West 13.8 mph - N/A   Partly Cloudy
2:50 AM 64.4 °F 44.6 °F 49% 29.89 in 6.2 mi West 10.4 mph - N/A   Partly Cloudy
3:50 AM 62.6 °F 44.6 °F 52% 29.89 in 6.2 mi WNW 9.2 mph - N/A   Partly Cloudy
4:50 AM 62.6 °F 42.8 °F 48% 29.89 in 6.2 mi WNW 11.5 mph - N/A   Partly Cloudy
5:50 AM 60.8 °F 42.8 °F 52% 29.89 in 6.2 mi WNW 9.2 mph - N/A   Partly Cloudy
6:20 AM 62.6 °F 42.8 °F 48% 29.89 in - WNW 10.4 mph - N/A   Clear
6:50 AM 62.6 °F 42.8 °F 48% 29.89 in - WNW 11.5 mph - N/A   Clear
7:20 AM 64.4 °F 42.8 °F 45% 29.89 in - NW 6.9 mph - N/A   Clear
7:50 AM 66.2 °F 42.8 °F 43% 29.89 in - NW 9.2 mph - N/A   Clear
8:20 AM 69.8 °F 42.8 °F 38% 29.89 in - North 6.9 mph - N/A   Clear
8:50 AM 71.6 °F 42.8 °F 35% 29.89 in - NW 6.9 mph - N/A   Clear
9:20 AM 73.4 °F 42.8 °F 33% 29.92 in - West 13.8 mph - N/A   Clear
9:50 AM 75.2 °F 42.8 °F 31% 29.89 in - WSW 12.7 mph - N/A   Clear
10:20 AM 77.0 °F 41.0 °F 28% 29.89 in - West 12.7 mph - N/A   Clear
10:50 AM 78.8 °F 41.0 °F 26% 29.89 in - West 13.8 mph - N/A   Clear
11:20 AM 78.8 °F 41.0 °F 26% 29.89 in - West 12.7 mph - N/A   Clear
11:50 AM 80.6 °F 41.0 °F 24% 29.89 in - West 16.1 mph - N/A   Clear
12:20 PM 82.4 °F 41.0 °F 23% 29.89 in - West 15.0 mph - N/A   Clear
12:50 PM 80.6 °F 39.2 °F 23% 29.89 in 6.2 mi West 11.5 mph - N/A   Scattered Clouds
1:20 PM 82.4 °F 39.2 °F 21% 29.89 in 6.2 mi West 16.1 mph - N/A   Scattered Clouds
1:50 PM 82.4 °F 39.2 °F 21% 29.89 in 6.2 mi West 16.1 mph - N/A   Scattered Clouds
2:20 PM 82.4 °F 39.2 °F 21% 29.89 in 6.2 mi West 20.7 mph 32.2 mph N/A   Partly Cloudy
2:50 PM 84.2 °F 39.2 °F 20% 29.89 in 6.2 mi West 19.6 mph - N/A   Partly Cloudy
3:20 PM 84.2 °F 39.2 °F 20% 29.89 in 6.2 mi West 20.7 mph - N/A   Partly Cloudy
3:50 PM 84.2 °F 39.2 °F 20% 29.86 in 6.2 mi WSW 20.7 mph 32.2 mph N/A   Partly Cloudy
4:20 PM 82.4 °F 39.2 °F 21% 29.86 in 6.2 mi WSW 20.7 mph 32.2 mph N/A   Partly Cloudy
4:50 PM 82.4 °F 39.2 °F 21% 29.86 in 6.2 mi WSW 19.6 mph 31.1 mph N/A   Partly Cloudy
5:20 PM 84.2 °F 41.0 °F 22% 29.86 in 6.2 mi WSW 19.6 mph 31.1 mph N/A   Partly Cloudy
5:50 PM 82.4 °F 41.0 °F 23% 29.86 in 6.2 mi WSW 23.0 mph 34.5 mph N/A   Partly Cloudy
6:20 PM 82.4 °F 41.0 °F 23% 29.86 in 6.2 mi WSW 20.7 mph 32.2 mph N/A   Partly Cloudy
6:50 PM 80.6 °F 41.0 °F 24% 29.86 in 6.2 mi WSW 23.0 mph 34.5 mph N/A   Partly Cloudy
7:50 PM 78.8 °F 41.0 °F 26% 29.86 in 6.2 mi WSW 20.7 mph - N/A   Partly Cloudy
8:20 PM 77.0 °F 41.0 °F 28% 29.89 in 6.2 mi WSW 19.6 mph - N/A   Partly Cloudy
8:50 PM 75.2 °F 41.0 °F 29% 29.89 in 6.2 mi WSW 20.7 mph - N/A   Partly Cloudy
9:50 PM 71.6 °F 42.8 °F 35% 29.89 in 6.2 mi WSW 9.2 mph - N/A   Partly Cloudy
10:50 PM 68.0 °F 44.6 °F 43% 29.92 in 6.2 mi West 5.8 mph - N/A   Partly Cloudy
11:50 PM 64.4 °F 46.4 °F 52% 29.92 in 6.2 mi WSW 4.6 mph - N/A   Partly Cloudy